TimeMDT,TemperatureF,Dew PointF,Humidity,Sea Level PressureIn,VisibilityMPH,Wind Direction,Wind SpeedMPH,Gust SpeedMPH,PrecipitationIn,Events,Conditions,WindDirDegrees,DateUTC
12:53 AM,53.1,32.0,45,29.68,10.0,WSW,6.9,-,N/A,,Mostly Cloudy,240,2013-05-28 06:53:00
1:53 AM,54.0,30.9,41,29.64,10.0,Variable,4.6,-,N/A,,Mostly Cloudy,0,2013-05-28 07:53:00
2:53 AM,55.9,32.0,40,29.63,10.0,NW,18.4,-,N/A,,Scattered Clouds,310,2013-05-28 08:53:00
3:53 AM,51.1,34.0,52,29.64,10.0,West,4.6,-,N/A,,Overcast,270,2013-05-28 09:53:00
4:53 AM,50.0,33.1,52,29.64,10.0,Variable,3.5,-,N/A,,Scattered Clouds,0,2013-05-28 10:53:00
5:53 AM,52.0,34.0,50,29.62,10.0,SW,13.8,-,N/A,,Partly Cloudy,220,2013-05-28 11:53:00
6:53 AM,52.0,36.0,54,29.62,10.0,WNW,6.9,-,N/A,,Clear,300,2013-05-28 12:53:00
7:53 AM,48.9,37.0,64,29.64,10.0,NW,5.8,-,N/A,,Clear,310,2013-05-28 13:53:00
8:53 AM,50.0,37.0,61,29.65,10.0,NNW,4.6,-,N/A,,Mostly Cloudy,340,2013-05-28 14:53:00
9:53 AM,53.1,37.9,57,29.64,10.0,NNW,3.5,-,N/A,,Mostly Cloudy,340,2013-05-28 15:53:00
10:53 AM,55.9,39.0,53,29.62,10.0,NNE,4.6,-,N/A,,Overcast,20,2013-05-28 16:53:00
11:53 AM,60.1,39.0,46,29.58,10.0,NNE,4.6,-,N/A,,Clear,20,2013-05-28 17:53:00
12:53 PM,63.0,37.9,40,29.55,10.0,Calm,Calm,-,N/A,,Scattered Clouds,0,2013-05-28 18:53:00
1:19 PM,64.4,37.4,37,29.69,10.0,Variable,4.6,-,N/A,Thunderstorm,Thunderstorm,0,2013-05-28 19:19:00
1:43 PM,64.4,39.2,40,29.69,10.0,NW,20.7,26.5,N/A,,Scattered Clouds,310,2013-05-28 19:43:00
1:53 PM,62.1,37.9,41,29.54,10.0,NW,10.4,-,N/A,,Mostly Cloudy,310,2013-05-28 19:53:00
2:40 PM,51.8,42.8,71,29.72,2.5,South,21.9,35.7,0.02,Rain,Light Rain,170,2013-05-28 20:40:00
2:53 PM,53.1,45.0,74,29.59,8.0,SSW,6.9,-,0.03,Rain,Light Rain,210,2013-05-28 20:53:00
3:53 PM,53.1,41.0,64,29.62,10.0,WSW,20.7,31.1,0.00,Rain,Light Rain,250,2013-05-28 21:53:00
4:53 PM,57.9,43.0,58,29.57,10.0,WNW,6.9,-,0.00,,Mostly Cloudy,290,2013-05-28 22:53:00
5:18 PM,55.4,44.6,67,29.70,10.0,NW,13.8,20.7,N/A,,Mostly Cloudy,310,2013-05-28 23:18:00
5:53 PM,57.0,44.1,62,29.58,10.0,NW,6.9,-,N/A,,Partly Cloudy,320,2013-05-28 23:53:00
6:53 PM,55.0,45.0,69,29.59,10.0,SSW,5.8,-,N/A,Thunderstorm,Thunderstorm,200,2013-05-29 00:53:00
7:09 PM,53.6,44.6,72,29.72,10.0,South,5.8,-,N/A,,Overcast,170,2013-05-29 01:09:00
7:53 PM,54.0,45.0,72,29.60,10.0,SE,4.6,-,0.00,,Overcast,130,2013-05-29 01:53:00
8:12 PM,53.6,44.6,72,29.71,10.0,SE,3.5,-,0.00,Rain-Thunderstorm,Light Thunderstorms and Rain,140,2013-05-29 02:12:00
8:32 PM,53.6,44.6,72,29.71,10.0,Calm,Calm,-,0.00,,Scattered Clouds,0,2013-05-29 02:32:00
8:53 PM,52.0,42.1,69,29.61,10.0,ESE,6.9,-,0.00,,Mostly Cloudy,120,2013-05-29 02:53:00
9:53 PM,51.1,42.1,71,29.61,10.0,WNW,3.5,-,N/A,,Partly Cloudy,300,2013-05-29 03:53:00
10:53 PM,51.1,42.1,71,29.60,10.0,WNW,3.5,-,N/A,,Mostly Cloudy,300,2013-05-29 04:53:00
11:53 PM,51.1,42.1,71,29.57,10.0,West,5.8,-,N/A,,Overcast,280,2013-05-29 05:53:00